Location: Blanot
(47.1713°N, 4.2340°E)
Time: 10:49:42
(UTC+00:00)

Meteor 1-29 - Pass Details

Date: 14 July 2020
Orbit: 440 x 459 km, 97.7° (Epoch: 05 August)

Event Time Altitude Azimuth Distance (km) Brightness Sun altitude
Rises 00:54:38 0° 9° (N) 2,464 8.2 -19.6°
Reaches altitude 10° 00:56:41 10° 6° (N) 1,590 6.8 -19.5°
Maximum altitude 01:00:02 59° 287° (WNW) 528 3.1 -19.4°
Enters shadow 01:00:23 55° 256° (WSW) 549 3.1 -19.3°
